Torna al catalogo

STARLINK-31030

AttivoComunicazioniVLEO
NORAD 58542·PAYLOAD·🇺🇸 United States

Lanciato Dec 8, 2023 da Vandenberg Space Force Base

Loading…

Prossimi Passaggi (prossime 24 ore)

TLE

AggiornatoSource: CelesTrak SupGP

Epoca: Sep 14, 2026, 15:14 UTC

1 58542C 23192M   26257.63520833 -.00032707  00000+0 -96659-3 0  2578
2 58542  53.1569 261.0155 0001271  88.4273 194.0142 15.34398322    10

Traccia STARLINK-31030 in tempo reale con AllMySat

Download on the App Store